This demonstration page uses our WeatherBlox Daily Observations layout. Learn more.

Left ArrowRight Arrow

Hourly Observations for May 28, 2022

Temp ( °F °C ) Dew Point ( °F °C ) Humidity (%) Winds ( mph kmh ) Pressure ( in mb ) Visibility ( mi km ) Precip ( " mm )
12:15 am 00:15 Mostly Cloudy 55 13 52 11 88 88 WNW 12 19 29.89 1012 10 16 N/A
12:35 am 00:35 Partly Cloudy 54 12 50 10 88 88 WNW 12 19 29.90 1013 10 16 N/A
12:55 am 00:55 Clear 54 12 50 10 88 88 NW 9 15 29.90 1013 10 16 N/A
1:15 am 01:15 Clear 54 12 50 10 88 88 WNW 8 13 29.91 1013 10 16 N/A
1:35 am 01:35 Clear 52 11 50 10 94 94 WNW 8 13 29.91 1013 10 16 N/A
1:55 am 01:55 Clear 52 11 52 11 100 100 WNW 6 9 29.91 1013 10 16 N/A
2:15 am 02:15 Clear 52 11 52 11 100 100 WNW 6 9 29.91 1013 10 16 N/A
2:35 am 02:35 Clear 52 11 52 11 100 100 WNW 6 9 29.90 1012 10 16 N/A
2:55 am 02:55 Clear 50 10 50 10 100 100 W 3 6 29.91 1013 10 16 N/A
3:15 am 03:15 Clear 50 10 50 10 100 100 W 5 7 29.91 1013 10 16 N/A
3:35 am 03:35 Clear 50 10 50 10 100 100 W 5 7 29.91 1013 10 16 N/A
3:55 am 03:55 Clear 50 10 50 10 100 100 W 5 7 29.92 1013 10 16 N/A
4:15 am 04:15 Clear 50 10 50 10 100 100 W 3 6 29.92 1013 10 16 N/A
4:35 am 04:35 Clear 50 10 50 10 100 100 W 5 7 29.93 1014 10 16 N/A
4:55 am 04:55 Clear 50 10 50 10 100 100 W 6 9 29.93 1014 10 16 N/A
5:15 am 05:15 Clear 50 10 50 10 100 100 W 6 9 29.94 1014 10 16 N/A
5:35 am 05:35 Clear 48 9 48 9 100 100 W 5 7 29.94 1014 10 16 N/A
5:55 am 05:55 Clear 48 9 48 9 100 100 W 3 6 29.95 1014 10 16 N/A
6:15 am 06:15 Clear 48 9 48 9 100 100 W 5 7 29.95 1014 10 16 N/A
6:35 am 06:35 Sunny 48 9 48 9 100 100 W 5 7 29.96 1015 10 16 N/A
6:55 am 06:55 Partly Cloudy 50 10 50 10 100 100 WNW 3 6 29.97 1015 10 16 N/A
7:15 am 07:15 Partly Cloudy 50 10 50 10 100 100 Calm 29.97 1015 10 16 N/A
7:35 am 07:35 Sunny 52 11 52 11 100 100 Calm 29.97 1015 10 16 N/A
7:55 am 07:55 Sunny 54 12 54 12 100 100 Calm 29.95 1014 10 16 N/A
8:15 am 08:15 Sunny 55 13 54 12 94 94 WNW 7 11 29.96 1015 10 16 N/A
8:35 am 08:35 Partly Cloudy 55 13 54 12 94 94 NW 8 13 29.97 1015 10 16 N/A
8:55 am 08:55 Mostly Cloudy 55 13 54 12 94 94 NW 8 13 29.97 1015 10 16 N/A
9:15 am 09:15 Partly Cloudy 57 14 54 12 88 88 NNW 5 7 29.98 1015 10 16 N/A
9:35 am 09:35 Sunny 57 14 54 12 88 88 NW 6 9 29.98 1015 10 16 N/A
9:55 am 09:55 Partly Cloudy 59 15 54 12 82 82 NW 5 7 29.97 1015 10 16 N/A
10:15 am 10:15 Mostly Cloudy 59 15 54 12 82 82 Calm 29.97 1015 10 16 N/A
10:35 am 10:35 Cloudy 61 16 55 13 83 83 Calm 29.97 1015 10 16 N/A
10:55 am 10:55 Cloudy 63 17 55 13 77 77 NW 3 6 29.97 1015 10 16 N/A
11:15 am 11:15 Cloudy 63 17 54 12 73 73 Calm 29.98 1015 10 16 N/A
11:35 am 11:35 Cloudy 63 17 55 13 77 77 Calm 29.97 1015 10 16 N/A
11:55 am 11:55 Cloudy 64 18 55 13 73 73 Calm 29.97 1015 10 16 N/A
12:15 pm 12:15 Mostly Cloudy 66 19 55 13 68 68 Calm 29.96 1015 10 16 N/A
12:35 pm 12:35 Cloudy 64 18 55 13 73 73 Calm 29.97 1015 10 16 N/A
12:55 pm 12:55 Mostly Cloudy 68 20 57 14 69 69 SSW 5 7 29.96 1014 10 16 N/A
1:15 pm 13:15 Mostly Cloudy 68 20 57 14 69 69 Calm 29.96 1014 10 16 N/A
1:35 pm 13:35 Partly Cloudy 68 20 57 14 69 69 ESE 5 7 29.95 1014 10 16 N/A
1:55 pm 13:55 Partly Cloudy 70 21 59 15 69 69 S 6 9 29.95 1014 10 16 N/A
2:15 pm 14:15 Mostly Cloudy 70 21 57 14 64 64 Calm 29.94 1014 10 16 N/A
2:35 pm 14:35 Mostly Cloudy 70 21 57 14 64 64 SW 7 11 29.94 1014 10 16 N/A
2:55 pm 14:55 Mostly Cloudy 72 22 57 14 61 61 S 6 9 29.93 1014 10 16 N/A
3:15 pm 15:15 Mostly Cloudy 72 22 57 14 61 61 SSW 8 13 29.93 1014 10 16 N/A
3:35 pm 15:35 Mostly Cloudy 72 22 57 14 61 61 W 10 17 29.93 1014 10 16 N/A
3:55 pm 15:55 Mostly Cloudy 72 22 57 14 61 61 SW 10 17 29.93 1014 10 16 N/A
4:15 pm 16:15 Cloudy 72 22 57 14 61 61 W 7 11 29.93 1014 10 16 N/A
4:35 pm 16:35 Cloudy 72 22 57 14 61 61 SW 8 13 29.91 1013 10 16 N/A
4:55 pm 16:55 Mostly Cloudy 72 22 57 14 61 61 SW 3 6 29.91 1013 10 16 N/A
5:15 pm 17:15 Mostly Cloudy 73 23 57 14 57 57 WSW 8 13 29.91 1013 10 16 N/A
5:35 pm 17:35 Partly Cloudy 72 22 55 13 57 57 Calm 29.90 1013 10 16 N/A
5:55 pm 17:55 Mostly Cloudy 72 22 57 14 61 61 SSW 8 13 29.90 1013 10 16 N/A
6:15 pm 18:15 Partly Cloudy 72 22 57 14 61 61 SSE 5 7 29.89 1012 10 16 N/A
6:35 pm 18:35 Partly Cloudy 72 22 57 14 61 61 S 8 13 29.89 1012 10 16 N/A
6:55 pm 18:55 Sunny 72 22 57 14 61 61 S 7 11 29.89 1012 10 16 N/A
7:15 pm 19:15 Sunny 72 22 57 14 61 61 S 7 11 29.88 1012 10 16 N/A
7:35 pm 19:35 Sunny 72 22 59 15 65 65 S 8 13 29.88 1012 10 16 N/A
7:55 pm 19:55 Sunny 70 21 59 15 69 69 SSW 8 13 29.90 1012 10 16 N/A
8:15 pm 20:15 Sunny 68 20 59 15 73 73 S 9 15 29.89 1012 10 16 N/A
8:35 pm 20:35 Sunny 68 20 57 14 69 69 SSW 6 9 29.90 1012 10 16 N/A
8:55 pm 20:55 Sunny 66 19 57 14 73 73 S 6 9 29.89 1012 10 16 N/A
9:15 pm 21:15 Clear 66 19 59 15 78 78 S 5 7 29.90 1013 10 16 N/A
9:35 pm 21:35 Clear 64 18 59 15 83 83 SSW 5 7 29.90 1013 10 16 N/A
9:55 pm 21:55 Clear 64 18 59 15 83 83 SSW 7 11 29.91 1013 10 16 N/A
10:15 pm 22:15 Clear 63 17 59 15 88 88 S 6 9 29.92 1013 10 16 N/A
10:35 pm 22:35 Clear 63 17 59 15 88 88 S 5 7 29.93 1013 10 16 N/A
10:55 pm 22:55 Clear 63 17 59 15 88 88 S 5 7 29.93 1013 10 16 N/A
11:15 pm 23:15 Clear 63 17 59 15 88 88 S 6 9 29.94 1014 10 16 N/A
11:35 pm 23:35 Clear 61 16 59 15 94 94 S 5 7 29.95 1014 10 16 N/A
11:55 pm 23:55 Clear 61 16 59 15 94 94 S 5 7 29.95 1014 10 16 N/A

Powered by AerisWeather